Home > Weather > Mansfield > Past weeks

Flag for USA Past Weather in Mansfield, Texas, USA — Yesterday and Last 2 Weeks

Now
78 °F

Clear.


Feels Like: 80 °F
Forecast: 74 / 96 °F
Wind: 5 mph from Southeast

Location: Burleson-Rendon

Current Time: Jun 30, 2016 at 11:39:10 PM

Latest Report: Jun 30, 2016 at 10:55 PM


Visibility: 10 mi

Pressure: 29.99 "Hg

Humidity: 67%

Dew Point: 66 °F

Location of MansfieldLocation

Past Weather in Mansfield — Graph

°F

Mansfield Temperature Yesterday

Maximum temperature yesterday: 93 °F (at 2:49 PM)
Minimum temperature yesterday: 69 °F (at 5:35 AM)
Average temperature yesterday: 78 °F

High & Low Weather Summary for the Past Weeks

 TemperatureHumidityPressure
High99 °F (Jun 27, 3:55 PM)96% (Jun 28, 11:15 PM)30.24 "Hg (Jun 28, 11:15 PM)
Low69 °F (Jun 29, 5:35 AM)33% (Jun 27, 3:55 PM)29.88 "Hg (Jun 17, 6:53 PM)
Average81 °F72%30.04 "Hg
* Reported Jun 15 10:15 PM — Jun 30 10:15 PM, Mansfield, Weather by CustomWeather, © 2016

Note: Actual official high and low records may vary slightly from our data, if they occured in-between our weather recording intervals... More about our weather records

Advertising

Mansfield Weather History for the Previous 24 Hours

Scroll right to see more
 ConditionsComfort  
Time TempWeatherWind HumidityBarometerVisibility
10:15 PM
Thu, Jun 30
80 °FClear.6 mph69%30.00 "Hg10 mi
9:55 PM80 °FClear.5 mph68%29.99 "Hg10 mi
9:15 PM81 °FSunny.5 mph67%29.97 "Hg10 mi
8:55 PM82 °FSunny.5 mph65%29.97 "Hg10 mi
8:35 PM84 °FSunny.5 mph59%29.96 "Hg10 mi
8:15 PM86 °FSunny.3 mph56%29.96 "Hg10 mi
7:55 PM89 °FSunny.3 mph50%29.95 "Hg7 mi
6:51 PM93 °FSunny.6 mph41%29.94 "Hg10 mi
5:50 PM95 °FPassing clouds.6 mph34%29.96 "Hg10 mi
4:50 PM93 °FPassing clouds.5 mph39%29.97 "Hg10 mi
3:54 PM93 °FPassing clouds.6 mph41%29.98 "Hg10 mi
2:50 PM93 °FScattered clouds.6 mph41%30.00 "Hg10 mi
1:49 PM91 °FScattered clouds.5 mph44%30.02 "Hg10 mi
12:47 PM91 °FScattered clouds.5 mph46%30.03 "Hg10 mi
11:48 AM90 °FScattered clouds.7 mph46%30.05 "Hg10 mi
10:47 AM88 °FScattered clouds.6 mph55%30.06 "Hg10 mi
9:49 AM86 °FSunny.7 mph59%30.06 "Hg10 mi
8:48 AM82 °FSunny.5 mph70%30.06 "Hg7 mi
7:48 AM75 °FSunny.No wind89%30.04 "Hg7 mi
6:50 AM72 °FClear.No wind94%30.03 "Hg7 mi
6:35 AM71 °FFog.No wind94%30.02 "Hg5 mi
6:15 AM71 °FClear.No wind92%30.02 "Hg7 mi
5:55 AM71 °FClear.No wind93%30.02 "Hg10 mi
5:35 AM71 °FClear.No wind95%30.00 "Hg10 mi
5:15 AM70 °FFog.No wind95%30.00 "Hg5 mi
4:55 AM72 °FClear.No wind95%30.00 "Hg7 mi
4:35 AM71 °FClear.No wind95%30.00 "Hg7 mi
4:15 AM71 °FClear.No wind94%30.00 "Hg7 mi
3:55 AM71 °FClear.No wind93%30.00 "Hg10 mi
3:35 AM71 °FClear.No wind94%30.00 "Hg10 mi
3:15 AM71 °FClear.No wind93%30.00 "Hg10 mi
2:55 AM71 °FClear.No wind94%30.00 "Hg7 mi
2:35 AM72 °FClear.No wind92%30.00 "Hg7 mi
2:15 AM73 °FClear.No wind91%30.02 "Hg10 mi
1:55 AM74 °FClear.No wind91%30.02 "Hg10 mi
1:35 AM73 °FClear.No wind91%30.02 "Hg10 mi
1:15 AM74 °FClear.No wind92%30.02 "Hg10 mi
12:55 AM75 °FClear.No wind89%30.02 "Hg10 mi
12:15 AM76 °FClear.No wind85%30.02 "Hg10 mi
11:55 PM
Wed, Jun 29
75 °FClear.No wind86%30.02 "Hg10 mi
11:35 PM75 °FClear.No wind91%30.02 "Hg10 mi
11:15 PM76 °FClear.No wind89%30.02 "Hg10 mi
Weather by CustomWeather, © 2016

See weather overviewHow to use our weather pages